Regional Weather Roundup
Issued by NWS Glasgow, MT

Home | Current Version | Previous Version | Text Only | Print | Product List | Glossary On
Versions: 1 2 3 4 5 6 7 8 9 10 11 12 13 14 15 16 17 18 19 20 21 22 23 24 25 26 27 28 29 30 31 32 33 34 35 36 37 38 39 40 41 42 43 44 45 46 47 48 49 50
000
ASUS45 KGGW 301715
RWRGGW
HOURLY REGIONAL WEATHER ROUNDUP FOR NORTHEAST MONTANA
NATIONAL WEATHER SERVICE GLASGOW MONTANA
1100 AM MDT SAT MAY 30 2015

NOTE: "FAIR" INDICATES FEW OR NO CLOUDS BELOW 12,000 FEET WITH NO
SIGNIFICANT WEATHER AND/OR OBSTRUCTIONS TO VISISBILITY.

NORTHEAST MONTANA


CITY           SKY/WX    TMP DP  RH WIND       PRES   REMARKS
GLASGOW        CLOUDY    62  40  44 E21G30    30.12F
PLENTYWOOD       N/A     51  33  50 SE10G24     N/A
WOLF POINT     PTSUNNY   60  38  43 SE13G24   30.18F
JORDAN           N/A     61  40  45 SE18      30.08F
WINNETT          N/A     65  45  48 SE5         N/A
SIDNEY         SUNNY     59  34  38 SE16G22   30.23F
GLENDIVE       MOSUNNY   59  37  44 SE17G24   30.19F
MALTA            N/A     62  40  44 E13G24      N/A
SCOBEY           N/A     57  32  38 SE18G29   30.18F
OPHEIM           N/A     52  32  46 SE15      30.05F

FORT PECK REPORTS


CITY           SKY/WX    TMP DP  RH WIND       PRES   REMARKS
FORT PECK        N/A     58  39  49 E24G33      N/A
THE PINES        N/A     63  37  38 SE8G20      N/A

SOUTHEAST MONTANA


CITY           SKY/WX    TMP DP  RH WIND       PRES   REMARKS
BILLINGS       PTSUNNY   63  48  58 NE3       30.06F
MILES CITY     CLOUDY    62  41  46 SE18      30.11F
BAKER          LGT RAIN  58  38  47 SE24G30   30.21F
LIVINGSTON     MOSUNNY   65  51  60 SE5       30.05F

CENTRAL MONTANA


CITY           SKY/WX    TMP DP  RH WIND       PRES   REMARKS
HAVRE          SUNNY     67  44  43 E16       29.99F
LEWISTOWN      MOSUNNY   69  48  47 SE8       30.02F
GREAT FALLS    LGT RAIN  59  50  72 W3        30.03R
CUT BANK       CLOUDY    51  46  83 E6        30.03F
HELENA         CLOUDY    61  50  67 NW5       30.03F
BUTTE          CLOUDY    61  42  49 NE6       30.10F
BOZEMAN        CLOUDY    64  50  60 CALM      30.06S

WESTERN MONTANA


CITY           SKY/WX    TMP DP  RH WIND       PRES   REMARKS
MISSOULA       CLOUDY    58  51  78 CALM      30.04F
KALISPELL      NOT AVBL

NORTH DAKOTA


CITY           SKY/WX    TMP DP  RH WIND       PRES   REMARKS
WILLISTON      SUNNY     56  35  45 SE15G23   30.27F
DICKINSON      MOSUNNY   53  36  52 SE18      30.27F
MINOT          MOSUNNY   50  29  44 E15G24    30.37F
BISMARCK       MOSUNNY   50  31  48 E12       30.38F

SOUTHERN SASKATCHEWAN


CITY           SKY/WX    TMP DP  RH WIND       PRES   REMARKS
REGINA         PTSUNNY   48  32  53 SE21      30.30F
ESTEVAN        CLOUDY    50  30  46 SE18G24   30.32F
SWIFT CURRENT  CLOUDY    55  34  44 SE20G28   30.13F




USA.gov is the U.S. government's official web portal to all federal, state and local government web resources and services.